Overview Statistics Trail Chart Weather Telemetry Raw packets
 

This is the latest recevied weather packets stored in our database for station/object 4S6DRJ-13. If no packets are shown the sender has not sent any weather packets the latest 10 day(s).

<< 544 545 546 547 548 549 550 >>
Time Temp. Humidity Pressure Rain* Wind** Luminosity Snow
1787611361 25.56° C 92% 1009.6 hPa 0 mm 0.89 m/s, 154° 0 W/m² -
1787611300 25.56° C 92% 1009.7 hPa 0 mm 0.89 m/s, 170° 0 W/m² -
1787611239 25.56° C 92% 1009.8 hPa 0 mm 1.34 m/s, 135° 0 W/m² -
1787611178 25.56° C 92% 1009.9 hPa 0 mm 0.89 m/s, 185° 0 W/m² -
1787611117 25.56° C 92% 1009.8 hPa 0 mm 0.89 m/s, 152° 0 W/m² -
1787611056 25.56° C 92% 1009.7 hPa 0 mm 0.45 m/s, 144° 0 W/m² -
1787610995 25.56° C 92% 1009.7 hPa 0 mm 0.45 m/s, 133° 0 W/m² -
1787610934 25.56° C 92% 1009.7 hPa 0 mm 1.34 m/s, 160° 0 W/m² -
1787610873 25.56° C 92% 1009.7 hPa 0 mm 0.89 m/s, 142° 0 W/m² -
1787610812 25.56° C 92% 1009.6 hPa 0 mm 0.45 m/s, 135° 0 W/m² -
1787610751 25.56° C 92% 1009.7 hPa 0 mm 0.45 m/s, 154° 0 W/m² -
1787610690 25.56° C 92% 1009.8 hPa 0 mm 0.45 m/s, 176° 0 W/m² -
1787610629 25.56° C 92% 1009.6 hPa 0 mm 0.89 m/s, 133° 0 W/m² -
1787610568 25.56° C 92% 1009.6 hPa 0 mm 0.45 m/s, 150° 0 W/m² -
1787610508 25.56° C 92% 1009.6 hPa 0 mm 0.45 m/s, 167° 0 W/m² -
1787610446 25.56° C 92% 1009.7 hPa 0 mm 0.45 m/s, 153° 0 W/m² -
1787610385 25.56° C 92% 1009.6 hPa 0 mm 0.89 m/s, 189° 0 W/m² -
1787610324 25.56° C 92% 1009.6 hPa 0 mm 0.89 m/s, 215° 0 W/m² -
1787610263 25.56° C 92% 1009.5 hPa 0 mm 0.45 m/s, 196° 0 W/m² -
1787610202 25.56° C 92% 1009.5 hPa 0 mm 0.89 m/s, 171° 0 W/m² -
1787610141 25.56° C 92% 1009.5 hPa 0 mm 0.45 m/s, 101° 0 W/m² -
1787610080 25.56° C 92% 1009.3 hPa 0 mm 0.45 m/s, 182° 0 W/m² -
1787610020 25.56° C 92% 1009.2 hPa 0 mm 0.89 m/s, 161° 0 W/m² -
1787609959 25.56° C 92% 1009.4 hPa 0.76 mm 0.89 m/s, 127° 0 W/m² -
1787609898 25.56° C 92% 1009.5 hPa 0.76 mm 1.34 m/s, 154° 0 W/m² -

* Rain latest hour (hover to see other rain measurements)
** Current wind speed in m/s (hover to see current wind gust speed)